Find Starlink 4470

NORAD ID: 53655 Int'l Des: 2022-105 Owner: SPXS Country: US Constellation: starlink operational
LEOCIRCULARRETROGRADESSO

現在のビュー

3D地球を読み込み中...

About Starlink 4470

Starlink 4470 (NORAD 53655) is a starlink constellation satellite (v1.5) launched Aug 31, 2022 by SPXS of US. It operates in LEO, CIRCULAR, RETROGRADE, SSO orbit with a mass of 300.00 kg.

次回通過

Passes for default location (London). Set your location on the main map for personalized predictions.

高度履歴

Loading altitude history...

軌道要素

1 53655U 22105H 26265.15681150 .00000228 00000-0 86034-5 0 9990
2 53655 97.4889 153.6281 0001691 87.3914 272.7524 15.36965849223457
Epoch: Sep 22, 2026 • Age: 20 hours

現在のステータス

高度 459.5 km
遠地点 / 近地点 N/A
速度 7.64 km/s
衛星直下点 37.21°N, 143.35°E
打ち上げ日 Aug 31, 2022
運用期間 4 years
タイプ internet

技術仕様

分類 Payload
質量 300.00 kg
乾燥質量 290.00 kg
長さ 0.20 m
スパン 9.00 m
形状 ? Box + pan
製造者 SPXS
バスタイプ Starlink
フェーズステータス In Orbit
所有者/国 SPXS/US

Most Searched